EW5980 Weather Reports


Display with metric or nautical units.
time (UTC)temp
F
wind
direction
speed
MPH
gust
MPH
rain 1hr
in
rain 24hr
in
rain mn
in
humidity
%
barometer
mb
20260905151600 89 0.0 0.0 0.00 0.00 0.00 69 1014.9
20260905144556 86 0.0 0.0 0.00 0.00 0.00 75 1015.0
20260905143055 84 0.0 0.0 0.00 0.00 0.00 74 1015.0
20260905141556 82 0.0 0.0 0.00 0.00 0.00 68 1015.0
20260905140048 80 0.0 0.0 0.00 0.00 0.00 41 1014.8
20260905134556 77 0.0 0.0 0.00 0.00 0.00 22 1014.9
20260905133054 76 0.0 0.0 0.00 0.00 0.00 17 1015.0
20260905131555 75 0.0 0.0 0.00 0.00 0.00 16 1014.8
20260905130046 75 0.0 0.0 0.00 0.00 0.00 18 1015.0
20260905124556 74 0.0 0.0 0.00 0.00 0.00 19 1014.9
20260905123050 73 0.0 0.0 0.00 0.00 0.00 19 1014.9
20260905121555 73 0.0 0.0 0.00 0.00 0.00 20 1014.9
20260905120054 73 0.0 0.0 0.00 0.00 0.00 20 1014.7
20260905114548 73 0.0 0.0 0.00 0.00 0.00 20 1014.6
20260905113053 73 0.0 0.0 0.00 0.00 0.00 20 1014.6
20260905111604 73 0.0 0.0 0.00 0.00 0.00 20 1014.6
20260905110057 73 0.0 0.0 0.00 0.00 0.00 21 1014.6
20260905104613 73 0.0 0.0 0.00 0.00 0.00 21 1014.4
20260905103052 73 0.0 0.0 0.00 0.00 0.00 20 1014.4
20260905101559 73 0.0 0.0 0.00 0.00 0.00 21 1014.5
20260905100053 73 0.0 0.0 0.00 0.00 0.00 21 1014.6
20260905094554 73 0.0 0.0 0.00 0.00 0.00 21 1014.7
20260905093054 73 0.0 0.0 0.00 0.00 0.00 21 1014.6
20260905091619 73 0.0 0.0 0.00 0.00 0.00 21 1014.4
20260905090051 73 0.0 0.0 0.00 0.00 0.00 22 1014.4
20260905084612 74 0.0 0.0 0.00 0.00 0.00 22 1014.2
20260905083052 74 0.0 0.0 0.00 0.00 0.00 22 1014.1
20260905081550 74 0.0 0.0 0.00 0.00 0.00 22 1013.8
20260905074602 74 0.0 0.0 0.00 0.00 0.00 22 1013.7
20260905073051 74 0.0 0.0 0.00 0.00 0.00 23 1013.7
20260905071548 74 0.0 0.0 0.00 0.00 0.00 22 1013.7
20260905070109 74 0.0 0.0 0.00 0.00 0.00 23 1013.7
20260905064555 74 0.0 0.0 0.00 0.00 0.00 23 1013.8
20260905063047 74 0.0 0.0 0.00 0.00 0.00 23 1013.7
20260905061555 74 0.0 0.0 0.00 0.00 0.00 23 1013.7
20260905060056 74 0.0 0.0 0.00 0.00 0.00 24 1013.6
20260905054600 74 0.0 0.0 0.00 0.00 0.00 24 1013.6
20260905053049 74 0.0 0.0 0.00 0.00 0.00 24 1013.6
20260905051559 74 0.0 0.0 0.00 0.00 0.00 25 1013.7
20260905050056 74 0.0 0.0 0.00 0.00 0.00 26 1013.9
20260905044554 74 0.0 0.0 0.00 0.00 0.00 26 1014.0
20260905043050 75 0.0 0.0 0.00 0.00 0.00 26 1014.0
20260905041605 75 0.0 0.0 0.00 0.00 0.00 26 1014.2
20260905040057 75 0.0 0.0 0.00 0.00 0.00 27 1014.2
20260905034549 75 0.0 0.0 0.00 0.00 0.00 28 1014.4
20260905033054 75 0.0 0.0 0.00 0.00 0.00 28 1014.4
20260905031552 75 0.0 0.0 0.00 0.00 0.00 29 1014.4
20260905030049 75 0.0 0.0 0.00 0.00 0.00 29 1014.4
20260905024554 75 0.0 0.0 0.00 0.00 0.00 29 1014.4
20260905023054 75 0.0 0.0 0.00 0.00 0.00 30 1014.8
20260905021556 75 0.0 0.0 0.00 0.00 0.00 31 1014.9
20260905020056 75 0.0 0.0 0.00 0.00 0.00 32 1014.8
20260905014559 76 0.0 0.0 0.00 0.00 0.00 33 1014.7
20260905013054 76 0.0 0.0 0.00 0.00 0.00 34 1014.6
20260905011547 76 0.0 0.0 0.00 0.00 0.00 35 1014.9
20260905010109 77 0.0 0.0 0.00 0.00 0.00 36 1015.0
20260905004554 77 0.0 0.0 0.00 0.00 0.00 33 1014.6
20260905003054 77 0.0 0.0 0.00 0.00 0.00 31 1014.7
20260905001548 78 0.0 0.0 0.00 0.00 0.00 29 1014.6
20260905000056 78 0.0 0.0 0.00 0.00 0.00 28 1014.4
20260904234555 77 0.0 0.0 0.00 0.00 0.00 30 1014.4
20260904233053 77 0.0 0.0 0.00 0.00 0.00 35 1014.4
20260904231549 77 0.0 0.0 0.00 0.00 0.00 38 1014.0
20260904230107 77 0.0 0.0 0.00 0.00 0.00 42 1014.0
20260904224606 78 0.0 0.0 0.00 0.00 0.00 45 1013.9
20260904223053 78 0.0 0.0 0.00 0.00 0.00 51 1013.9
20260904221547 78 0.0 0.0 0.00 0.00 0.00 60 1013.7
20260904220058 78 0.0 0.0 0.00 0.00 0.00 69 1014.0
20260904214556 79 0.0 0.0 0.00 0.00 0.00 72 1013.6
20260904213057 81 0.0 0.0 0.00 0.00 0.00 78 1014.0
20260904211600 85 0.0 0.0 0.00 0.00 0.00 77 1014.6
20260904210106 87 0.0 0.0 0.00 0.00 0.00 71 1013.6
20260904204558 88 0.0 0.0 0.00 0.00 0.00 70 1013.3
20260904203058 87 0.0 0.0 0.00 0.00 0.00 71 1013.2
20260904201551 88 0.0 0.0 0.00 0.00 0.00 68 1013.3
20260904200053 90 0.0 0.0 0.00 0.00 0.00 65 1013.4
20260904194547 93 0.0 0.0 0.00 0.00 0.00 60 1013.7
20260904193103 95 0.0 0.0 0.00 0.00 0.00 53 1013.6
20260904191605 96 0.0 0.0 0.00 0.00 0.00 49 1013.6
20260904190053 96 0.0 0.0 0.00 0.00 0.00 50 1014.1
20260904184606 97 0.0 0.0 0.00 0.00 0.00 49 1014.1
20260904183057 97 0.0 0.0 0.00 0.00 0.00 51 1014.6
20260904181554 97 0.0 0.0 0.00 0.00 0.00 51 1014.9
20260904180101 97 0.0 0.0 0.00 0.00 0.00 51 1015.1
20260904174553 97 0.0 0.0 0.00 0.00 0.00 52 1015.2
20260904173056 96 0.0 0.0 0.00 0.00 0.00 53 1015.6
20260904171602 96 0.0 0.0 0.00 0.00 0.00 54 1015.7
20260904170100 96 0.0 0.0 0.00 0.00 0.00 57 1016.0
20260904164559 95 0.0 0.0 0.00 0.00 0.00 61 1016.4
20260904163101 94 0.0 0.0 0.00 0.00 0.00 60 1016.3
20260904161559 93 0.0 0.0 0.00 0.00 0.00 61 1016.4
20260904160057 92 0.0 0.0 0.00 0.00 0.00 63 1016.4
20260904154603 90 0.0 0.0 0.00 0.00 0.00 66 1016.5
20260904153100 90 0.0 0.0 0.00 0.00 0.00 69 1016.7